Regional & State Weather Roundups


450 
ASUS43 KDTX 190310
RWRMI 
MICHIGAN HOURLY REGIONAL WEATHER ROUNDUP
NATIONAL WEATHER SERVICE DETROIT/PONTIAC MI
1000 PM EST THU JAN 18 2018
NOTE: "FAIR" INDICATES FEW OR NO CLOUDS BELOW 12,000 FEET WITH NO
SIGNIFICANT WEATHER AND/OR OBSTRUCTION TO VISIBILITY.
MIZ047>049-052>055-059>063-066>070-074>076-081>083-190400-
SOUTHEAST LOWER MICHIGAN
  
CITY           SKY/WX    TMP DP  RH WIND       PRES   REMARKS
ADRIAN         FAIR      23  13  65 W10       30.01F WCI  12          
ALMA           FAIR      28  19  69 SW13      29.89F WCI  17          
ANN ARBOR      FAIR      22  14  71 S12       29.97F WCI  10          
BAD AXE        FAIR      26  16  65 W14G21    29.87R WCI  14          
CARO           FAIR      27  17  64 SW13G21   29.87S WCI  16          
DETROIT CITY   FAIR      25  15  66 SW18G29   29.96F WCI  11          
DETROIT        FAIR      25  15  66 SW17G29   29.98F WCI  12          
FLINT          FAIR      26  15  63 SW17      29.91F WCI  13          
GROSSE ILE     FAIR      26  15  62 SW15G23   29.98F WCI  14          
HILLSDALE      FAIR      27  14  59 SW14G21   29.97F WCI  15          
HOWELL         FAIR      26  17  70 SW15G22   29.92F WCI  14          
CITY           SKY/WX    TMP DP  RH WIND       PRES   REMARKS
JACKSON        FAIR      26  15  63 SW20G28   29.95F WCI  12          
LAMBERTVILLE   FAIR      26  14  61 SW14G23   30.02F WCI  14          
LANSING        FAIR      25  16  68 SW15G24   29.93F WCI  13          
LAPEER         FAIR      28  16  59 W12G22    29.89R WCI  18          
MASON          FAIR      27  15  61 SW10      29.94F WCI  17          
MONROE         FAIR      25  13  60 SW16G24   30.00F WCI  12          
MT. CLEMENS    PTCLDY    26  12  56 SW12G24   29.91S WCI  16          
PONTIAC        FAIR      25  15  66 SW9       29.92F WCI  15          
PORT HOPE        N/A     27  17  66 W9G16     29.85R WCI  18          
PORT HURON     FAIR      25  14  63 SW9G21    29.90F WCI  15          
TRI CITIES     FAIR      28  18  66 SW15      29.88S WCI  16          
MIDLAND        FAIR      29  21  71 SW8       29.87S WCI  21          
TROY           FAIR      25  16  68 SW14      29.96F WCI  13          
SAGINAW HB     FAIR      28  18  64 SW15      29.88R WCI  17          
$$
MIZ043>046-050>051-056>058-064>065-071>073-077>080-190400-
SOUTHWEST LOWER MICHIGAN
  
CITY           SKY/WX    TMP DP  RH WIND       PRES   REMARKS
BATTLE CREEK   FAIR      25  17  72 SW16      29.96F WCI  12          
BENTON HARBOR  FAIR      27  17  66 S10       29.99F WCI  17          
BIG RAPIDS     FAIR      29  21  72 W9        29.86R WCI  21          
COLDWATER      FAIR      25  15  67 SW16G22   29.99F WCI  12          
FREMONT        FAIR      31  19  62 SW13G20   29.89F WCI  21          
HOLLAND        FAIR      32  24  72 SW17      29.95S WCI  21          
GRAND RAPIDS   FAIR      29  21  72 SW18      29.92F WCI  16          
IONIA          FAIR      27  18  69 SW15      29.91S WCI  15          
KALAMAZOO      FAIR      27  17  66 SW13      29.98F WCI  16          
LUDINGTON      FAIR      32  27  80 SW12      29.87S WCI  23          
MARSHALL       FAIR      25  16  67 SW17G24   29.96F WCI  12          
MOUNT PLEASANT FAIR      31  22  70 SW14G20   29.86S WCI  20          
MUSKEGON       FAIR      34  24  67 SW18G28   29.92S WCI  23          
SOUTH HAVEN    FAIR      31  21  64 SW15G25   29.97S WCI  21          
$$
MIZ016>042-190400-
NORTHERN LOWER MICHIGAN
  
CITY           SKY/WX    TMP DP  RH WIND       PRES   REMARKS
ALPENA         CLOUDY    32  25  75 SW6       29.79F WCI  26          
BEAVER ISLAND  CLOUDY    33  28  81 SW9       29.77F WCI  26          
BELLAIRE       CLOUDY    32  28  84 SW6       29.81S WCI  26          
CADILLAC       CLOUDY    24  22  91 SW8       29.81S WCI  16          
CHARLEVOIX     CLOUDY    32  28  85 S7        29.81F WCI  26          
FRANKFORT      FAIR      34  28  76 SW8       29.83F WCI  28          
GAYLORD        CLOUDY    29  25  85 W16G23    29.76F WCI  17          
GRAYLING       CLOUDY    28  22  77 SW7       29.80F WCI  21          
HARBOR SPRINGS CLOUDY    32  28  83 SW9       29.77F WCI  24          
HOUGHTON LAKE  CLOUDY    26  21  81 W7        29.82S WCI  18          
MANISTEE       FAIR      31  25  78 SW9       29.85S WCI  23          
OSCODA         CLOUDY    28  21  74 W16       29.82S WCI  17          
PELLSTON       CLOUDY    33  28  81 SW8       29.77F WCI  26          
ROGERS CITY    CLOUDY    33  26  76 W7        29.78S WCI  27          
TRAVERSE CITY  CLOUDY    32  25  75 SW9       29.81S WCI  24          
$$
MIZ007>008-015-190400-
EASTERN UPPER MICHIGAN
  
CITY           SKY/WX    TMP DP  RH WIND       PRES   REMARKS
KINROSS        CLOUDY    28  24  85 W7        29.74F WCI  21          
MACKINAC ISLAN CLOUDY    31  27  84 SW7       29.75F WCI  24          
NEWBERRY       CLOUDY    27  23  87 SW9       29.73F WCI  17          
S. S. MARIE    CLOUDY    31  24  75 SW7       29.73F WCI  24          
MUNISING         N/A     29  24  82 SW7       29.73F WCI  22          
$$
MIZ004>006-011>014-085-190400-
CENTRAL UPPER MICHIGAN
  
CITY           SKY/WX    TMP DP  RH WIND       PRES   REMARKS
MANISTIQUE     CLOUDY    29  24  83 CALM      29.76F                  
ESCANABA       CLOUDY    30  23  75 SW7       29.77F WCI  23          
MENOMINEE      FAIR      27  20  75 SW7       29.80S WCI  19          
SAWYER-GWINN   CLOUDY    30  25  80 SW7       29.72F WCI  23          
$$
MIZ001>003-009>011-084-190400-
WESTERN UPPER MICHIGAN
  
CITY           SKY/WX    TMP DP  RH WIND       PRES   REMARKS
IRON MOUNTAIN  MOCLDY    20  15  81 CALM      29.73F                  
HOUGHTON       CLOUDY    32  25  75 W9        29.68F WCI  24          
COPPER HARBOR    N/A     33  29  85 CALM      29.69F                  
IRONWOOD       FAIR      27  21  80 S3        29.70F                  
$$
ABBREVIATIONS USED IN REMARKS
   TC - TEMPERATURE IN CELSIUS
  WCI - WIND CHILL INDEX
   HX - HEAT INDEX
  VSB - VISIBILITY